Regional Weather Roundup
Issued by NWS

Home | Current Version | Previous Version | Graphics & Text | Print | Product List | Glossary On
Versions: 1 2 3 4 5 6 7 8 9 10 11 12 13 14 15 16 17 18 19 20 21 22 23 24 25 26 27 28 29 30 31 32 33 34 35 36 37 38 39 40 41 42 43 44 45 46 47 48 49 50
000
ASUS43 KLSX 251259
RWRMO

WEATHER SUMMARY FOR MISSOURI
NATIONAL WEATHER SERVICE SPRINGFIELD MO
800 AM CDT MON MAY 25 2015

NOTE: "FAIR" INDICATES FEW OR NO CLOUDS BELOW 12,000 FEET WITH NO
       SIGNIFICANT WEATHER AND/OR OBSTRUCTIONS TO VISIBILITY.
       CURRENT SKY AND/OR WEATHER CONDITIONS ARE NOT AVAILABLE FOR
       CHILLICOTHE AND FARMINGTON.

MOZ001>031-035>038-043-044-053-054-251400-
...NORTHERN AND WESTERN MISSOURI...

CITY           SKY/WX    TMP DP  RH WIND       PRES   REMARKS
KANSAS CTY INT CLOUDY    62  60  93 SW8       29.97R
KANSAS C DTWN  PTSUNNY   64  59  83 SW9G16    29.98R
LEE`S SUMMIT   PTSUNNY   62  59  90 S7        29.96R
ST JOSEPH      PTSUNNY   63  61  93 S10       29.93R
KIRKSVILLE     CLOUDY    64  62  93 SW12      29.92R

$$
MOZ066>068-077>081-088>096-101>105-251400-
...SOUTHWEST MISSOURI...

CITY           SKY/WX    TMP DP  RH WIND       PRES   REMARKS
SPRINGFIELD    CLOUDY    65  63  93 S10       29.97R
JOPLIN         PTSUNNY   67  64  90 S9        29.95R

$$
MOZ032>034-039>042-045>050-055>058-069>072-251400-
...CENTRAL MISSOURI...

CITY           SKY/WX    TMP DP  RH WIND       PRES   REMARKS
COLUMBIA       CLOUDY    64  61  90 SW9       29.98R
JEFFERSON CITY CLOUDY    66  61  84 SW8       29.98R
ROLLA          SUNNY     65  60  84 SW14      29.98R
SEDALIA        CLOUDY    64  59  83 SW12      29.98R
OSAGE BEACH    MOSUNNY   64  61  88 S6        29.99R

$$
MOZ051-052-059>065-251400-
...EAST CENTRAL MISSOURI...

CITY           SKY/WX    TMP DP  RH WIND       PRES   REMARKS
ST LOUIS INTL  CLOUDY    71  60  68 SW17G23   29.99R
SPIRIT OF STL  CLOUDY    68  62  81 SW12G18   29.98R
ST CHARLES     CLOUDY    69  62  78 SW14      29.97R

$$
MOZ072>076-082>087-097>100-106>115-251400-
...SOUTH CENTRAL AND SOUTHEAST MISSOURI...

CITY           SKY/WX    TMP DP  RH WIND       PRES   REMARKS
CAPE GIRARDEAU CLOUDY    69  67  93 S13       30.04R
FARMINGTON     CLOUDY    70  64  83 S12       30.05R
POPLAR BLUFF   LGT RAIN  69  67  93 S10       30.02R
WEST PLAINS    CLOUDY    69  65  86 S8        30.03R

$$


USA.gov is the U.S. government's official web portal to all federal, state and local government web resources and services.